This demonstration page uses our WeatherBlox Daily Observations layout. Learn more.

Left ArrowRight Arrow

34.02893, -84.19858

Hourly Observations for July 25, 2018

Temp ( °F °C ) Dew Point ( °F °C ) Humidity (%) Winds ( mph kmh ) Pressure ( in mb ) Visibility ( mi km ) Precip ( " mm )
12:53 am 00:53 Mostly Cloudy 73 22.8 71 21.7 94 94 Calm 29.92 1013 9 14 0.00 0.00
1:53 am 01:53 Clear 72 22.2 71 21.7 97 97 Calm 29.91 1013 9 14 0.00 0.00
2:53 am 02:53 Clear 72 22.2 70 21.1 94 94 N 3 6 29.89 1012 9 14 0.00 0.00
3:53 am 03:53 Clear with Mist and Fog 70 21.1 70 21.1 100 100 Calm 29.89 1012 4 6 0.00 0.00
4:53 am 04:53 Clear 71 21.7 70 21.1 96 96 NNE 3 6 29.89 1012 9 14 0.00 0.00
5:53 am 05:53 Clear 71 21.7 69 20.6 94 94 Calm 29.88 1012 9 14 0.00 0.00
6:53 am 06:53 Sunny with Mist and Fog 70 21.1 69 20.6 97 97 Calm 29.91 1013 6 10 0.00 0.00
7:53 am 07:53 Sunny 73 22.8 70 21.1 90 90 Calm 29.91 1013 8 13 0.00 0.00
8:01 am 08:01 Mostly Sunny 73 22.8 70 21.1 90 90 Calm 29.94 1014 8 13 0.00 0.00
8:24 am 08:24 Mostly Cloudy 74 23.3 70 21.1 88 88 N 5 7 29.94 1014 9 14 0.00 0.00
8:53 am 08:53 Mostly Cloudy 75 23.9 70 21.1 84 84 Calm 29.94 1014 9 14 0.00 0.00
9:37 am 09:37 Mostly Cloudy 77 25 69 20.6 77 77 N 3 6 29.94 1014 10 16 0.00 0.00
9:53 am 09:53 Mostly Cloudy 77 25 69 20.6 77 77 VRB 3 6 29.94 1014 10 16 0.00 0.00
10:00 am 10:00 Partly Cloudy 77 25 68 20 74 74 Calm 29.94 1014 10 16 0.00 0.00
10:53 am 10:53 Partly Cloudy 79 26.1 68 20 69 69 Calm 29.94 1014 10 16 0.00 0.00
11:53 am 11:53 Sunny 81 27.2 67 19.4 62 62 WNW 3 6 29.95 1014 10 16 0.00 0.00
12:53 pm 12:53 Sunny 85 29.4 68 20 57 57 Calm 29.93 1014 10 16 0.00 0.00
1:53 pm 13:53 Partly Cloudy 85 29.4 68 20 57 57 W 5 7 29.91 1013 10 16 0.00 0.00
2:53 pm 14:53 Mostly Cloudy 86 30 68 20 55 55 WNW 6 9 29.89 1012 10 16 0.00 0.00
3:53 pm 15:53 Sunny 88 31.1 67 19.4 50 50 WNW 6 9 29.88 1012 10 16 0.00 0.00
4:53 pm 16:53 Partly Cloudy 88 31.1 68 20 52 52 NW 12 19 29.86 1011 10 16 0.00 0.00
5:53 pm 17:53 Sunny 87 30.6 66 18.9 50 50 NNW 15 24 29.86 1011 10 16 0.00 0.00
6:53 pm 18:53 Sunny 86 30 65 18.3 49 49 NW 9 15 29.87 1012 10 16 0.00 0.00
7:53 pm 19:53 Sunny 84 28.9 64 17.8 51 51 NW 9 15 29.89 1012 10 16 0.00 0.00
8:53 pm 20:53 Clear 80 26.7 64 17.8 58 58 NNW 6 9 29.91 1013 10 16 0.00 0.00
9:53 pm 21:53 Clear 76 24.4 66 18.9 72 72 Calm 29.92 1013 10 16 0.00 0.00
10:53 pm 22:53 Clear 76 24.4 66 18.9 72 72 N 6 9 29.93 1014 10 16 0.00 0.00
11:53 pm 23:53 Clear 73 22.8 67 19.4 81 81 N 3 6 29.93 1014 10 16 0.00 0.00

Powered by AerisWeather